Graz, Austria

8:08 AM CET on December 09, 2016 (GMT +0100)
Graz

Weather History for LOWG - November, 2012

Change the Weather History Date:

Tuesday, November 13, 2012

  Actual Average Record
Temperature  
Mean Temperature 49 °F -  
Max Temperature 52 °F 42 °F 69 °F (1996)
Min Temperature 46 °F 29 °F 21 °F (2016)
Degree Days  
Heating Degree Days 16    
Moisture  
Dew Point 48 °F    
Average Humidity 95    
Maximum Humidity 100    
Minimum Humidity 82    
Precipitation  
Precipitation 0.02 in 0.06 in - ()
Sea Level Pressure  
Sea Level Pressure 30.42 in    
Wind  
Wind Speed 2 mph ()    
Max Wind Speed 5 mph    
Max Gust Speed -    
Visibility 4.1 miles    
Events Fog , Rain    
Averages and records for this station are not official NWS values.
T = Trace of Precipitation, MM = Missing Value Source: Averaged Metar Reports

Daily Weather History Graph

Daily Weather History Graph

Search for Another Location

Airport or City:

Trip Planner

Search our weather history database for the weather conditions in past years. The results will help you decide how hot, cold, wet, or windy it might be!

Date:

Astronomy

Nov. 13, 2012 Rise Set
Actual Time 6:58 AM CET 4:25 PM CET
Civil Twilight 6:25 AM CET 4:58 PM CET
Nautical Twilight 5:49 AM CET 5:35 PM CET
Astronomical Twilight 5:13 AM CET 6:11 PM CET
Moon 6:15 AM CET (11/13) 4:03 PM CET (11/13)
Length of Visible Light 10h 32m
Length of Day
9h 26m
Waning Crescent, 0% of the Moon is Illuminated
Nov 13
Waning Crescent
Nov 13
New
Nov 20
First Quarter
Nov 28
Full
Dec 6
Last Quarter

Hourly Weather History & Observations

Time (CET) Temp. Windchill Dew Point Humidity Pressure Visibility Wind Dir Wind Speed Gust Speed Precip Events Conditions
12:20 AM 48.2 °F - 48.2 °F 100% 30.33 in 0.7 mi Variable 1.2 mph - N/A Fog Drizzle
12:50 AM 48.2 °F - 48.2 °F 100% 30.33 in 0.7 mi Calm Calm - N/A Fog Drizzle
1:00 AM 48 °F - 47 °F 96% 30.35 in 1 mi Calm Calm - -  
1:20 AM 48.2 °F - 46.4 °F 93% 30.33 in 0.8 mi Variable 2.3 mph - N/A Fog , Rain Light Rain Showers
1:50 AM 48.2 °F - 48.2 °F 100% 30.33 in 3.1 mi Variable 1.2 mph - N/A Fog , Rain Light Rain Showers
2:20 AM 48.2 °F - 48.2 °F 100% 30.33 in 1.3 mi ENE 2.3 mph - N/A Fog Fog
2:50 AM 48.2 °F - 46.4 °F 93% 30.33 in 0.4 mi SE 2.3 mph - N/A Fog Drizzle
3:20 AM 48.2 °F - 48.2 °F 100% 30.33 in 0.4 mi SSE 2.3 mph - N/A Fog Drizzle
3:50 AM 48.2 °F - 48.2 °F 100% 30.33 in 0.7 mi Variable 2.3 mph - N/A Fog Light Drizzle
4:00 AM 48 °F - 47 °F 96% 30.37 in 1 mi 2.2 mph - - Rain Light Drizzle
4:20 AM 48.2 °F - 46.4 °F 93% 30.33 in 0.5 mi Variable 1.2 mph - N/A Fog Patches of Fog
4:50 AM 46.4 °F 45.2 °F 46.4 °F 100% 30.33 in 0.5 mi SSE 3.5 mph - N/A Fog Patches of Fog
5:20 AM 46.4 °F 45.2 °F 46.4 °F 100% 30.36 in 0.6 mi South 3.5 mph - N/A Fog Patches of Fog
5:50 AM 46.4 °F - 46.4 °F 100% 30.36 in 0.6 mi SSE 2.3 mph - N/A Fog , Rain Light Rain
6:20 AM 46.4 °F - 46.4 °F 100% 30.36 in 0.5 mi Variable 1.2 mph - N/A Fog , Rain Light Rain
6:50 AM 46.4 °F - 46.4 °F 100% 30.36 in 0.4 mi North 2.3 mph - N/A Fog Patches of Fog
7:00 AM 47 °F - 47 °F 100% 30.41 in 0 mi North 2.2 mph - - Fog Patches of Fog
7:20 AM 48.2 °F - 48.2 °F 100% 30.39 in 0.4 mi Variable 1.2 mph - N/A Fog Patches of Fog
7:50 AM 48.2 °F - 48.2 °F 100% 30.42 in 0.6 mi Variable 1.2 mph - N/A Fog Patches of Fog
8:20 AM 48.2 °F - 48.2 °F 100% 30.42 in 1.6 mi Variable 1.2 mph - N/A   Overcast
8:50 AM 48.2 °F - 48.2 °F 100% 30.42 in 2.2 mi Variable 1.2 mph - N/A   Overcast
9:20 AM 50.0 °F - 48.2 °F 94% 30.42 in 2.5 mi Variable 1.2 mph - N/A   Mostly Cloudy
9:50 AM 50.0 °F - 48.2 °F 94% 30.45 in 2.8 mi Variable 2.3 mph - N/A   Mostly Cloudy
10:00 AM 49 °F - 49 °F 98% 30.47 in 3 mi 2.2 mph - -   Mist
10:20 AM 50.0 °F - 48.2 °F 94% 30.45 in 5.0 mi Variable 2.3 mph - N/A   Mostly Cloudy
10:50 AM 50.0 °F - 48.2 °F 94% 30.45 in 5.0 mi Variable 2.3 mph - N/A   Mostly Cloudy
11:20 AM 50.0 °F - 48.2 °F 94% 30.45 in 6.2 mi Variable 1.2 mph - N/A   Mostly Cloudy
11:50 AM 51.8 °F - 50.0 °F 94% 30.45 in 6.2 mi Variable 2.3 mph - N/A   Light Drizzle
12:20 PM 51.8 °F - 48.2 °F 88% 30.42 in 6.2 mi WSW 3.5 mph - N/A   Mostly Cloudy
12:50 PM 51.8 °F - 50.0 °F 94% 30.42 in 6.2 mi SE 3.5 mph - N/A   Mostly Cloudy
1:00 PM 52 °F - 49 °F 86% 30.46 in 7 mi SE 4.5 mph - -   Partly Cloudy
1:20 PM 51.8 °F - 48.2 °F 88% 30.42 in 6.2 mi South 3.5 mph - N/A   Mostly Cloudy
1:50 PM 51.8 °F - 50.0 °F 94% 30.42 in 6.2 mi SSW 3.5 mph - N/A   Mostly Cloudy
2:20 PM 51.8 °F - 48.2 °F 88% 30.42 in 6.2 mi Variable 2.3 mph - N/A   Mostly Cloudy
2:50 PM 51.8 °F - 48.2 °F 88% 30.42 in 6.2 mi Variable 2.3 mph - N/A   Mostly Cloudy
3:20 PM 51.8 °F - 50.0 °F 94% 30.45 in 6.2 mi SE 3.5 mph - N/A   Mostly Cloudy
3:50 PM 51.8 °F - 50.0 °F 94% 30.45 in 6.2 mi Variable 1.2 mph - N/A   Mostly Cloudy
4:00 PM 52 °F - 49 °F 87% 30.47 in 9 mi 2.2 mph - -   Scattered Clouds
4:20 PM 51.8 °F - 50.0 °F 94% 30.45 in 6.2 mi SSE 2.3 mph - N/A   Mostly Cloudy
4:50 PM 50.0 °F - 50.0 °F 100% 30.45 in 6.2 mi SSE 2.3 mph - N/A   Mostly Cloudy
5:20 PM 50.0 °F - 48.2 °F 94% 30.45 in 6.2 mi Variable 2.3 mph - N/A   Mostly Cloudy
5:50 PM 50.0 °F - 48.2 °F 94% 30.45 in 6.2 mi Variable 2.3 mph - N/A   Mostly Cloudy
6:20 PM 50.0 °F - 46.4 °F 87% 30.48 in 6.2 mi ESE 4.6 mph - N/A   Mostly Cloudy
6:50 PM 50.0 °F - 46.4 °F 87% 30.48 in 6.2 mi East 3.5 mph - N/A   Mostly Cloudy
7:00 PM 50 °F - 46 °F 82% 30.50 in 9 mi East 4.5 mph - -   Partly Cloudy
7:20 PM 50.0 °F - 46.4 °F 87% 30.48 in 6.2 mi East 2.3 mph - N/A   Mostly Cloudy
7:50 PM 48.2 °F - 46.4 °F 93% 30.48 in 6.2 mi East 2.3 mph - N/A   Mostly Cloudy
8:20 PM 48.2 °F - 46.4 °F 93% 30.48 in 6.2 mi Variable 1.2 mph - N/A   Mostly Cloudy
8:50 PM 48.2 °F - 46.4 °F 93% 30.48 in 6.2 mi Variable 1.2 mph - N/A   Mostly Cloudy
9:20 PM 48.2 °F - 46.4 °F 93% 30.48 in 6.2 mi Variable 1.2 mph - N/A   Mostly Cloudy
9:50 PM 46.4 °F - 44.6 °F 93% 30.48 in 6.2 mi NE 2.3 mph - N/A   Mostly Cloudy
10:00 PM 47 °F - 45 °F 92% 30.52 in 7 mi NE 2.2 mph - -   Scattered Clouds
10:20 PM 46.4 °F - 46.4 °F 100% 30.48 in 6.2 mi Variable 1.2 mph - N/A   Mostly Cloudy
10:50 PM 46.4 °F - 46.4 °F 100% 30.48 in 6.2 mi East 2.3 mph - N/A   Mostly Cloudy
11:20 PM 46.4 °F - 44.6 °F 93% 30.48 in 6.2 mi East 2.3 mph - N/A   Mostly Cloudy
11:50 PM 46.4 °F 45.2 °F 44.6 °F 93% 30.48 in 6.2 mi East 3.5 mph - N/A   Mostly Cloudy